User: anonymous   Login
Location: Unspecified
(0.0000°N, 0.0000°E)
Time: 22:59:30
(UTC+00:00)
Language:

TBA - TO BE ASSIGNED - Orbit

View from above orbital plane
View from above orbital plane
View from above satellite
View from above satellite

Ground track
Ground track

The orbit is defined by the following mean orbital elements,

1 67892U          26145.36319818 +.00000000 +00000-0 +76460-3 0 00008
2 67892  97.2852  78.9663 0002303 112.9033 247.2453 15.33447555    02
Epoch (UTC): 25 May 2026 08:43:00
Eccentricity: 0.0002303
inclination: 97.2852°
perigee height: 464 km
apogee height: 467 km
right ascension of ascending node: 78.9663°
argument of perigee: 112.9033°
revolutions per day: 15.33447555
mean anomaly at epoch: 247.2453°

The dashed part of the orbit path shows where the satellite is in the earth's shadow,  

DLR